Weather History for PHNG - July, 2013

Change the Weather History Date:

Sunday, July 7, 2013

  Actual Average Record
Temperature  
Mean Temperature 80 °F -  
Max Temperature 86 °F 79 °F 86 °F (2013)
Min Temperature 73 °F 72 °F 71 °F (1996)
Cooling Degree Days 14    
Growing Degree Days 30 (Base 50)    
Moisture  
Dew Point 70 °F    
Average Humidity 74    
Maximum Humidity 89    
Minimum Humidity 58    
Precipitation  
Precipitation 0.00 in - - ()
Sea Level Pressure  
Sea Level Pressure 29.96 in    
Wind  
Wind Speed 4 mph (NE)    
Max Wind Speed 9 mph    
Max Gust Speed -    
Visibility 7 miles    
Events Rain    
Averages and records for this station are not official NWS values.
T = Trace of Precipitation, MM = Missing Value Source: NWS Daily Summary

Daily Weather History Graph

Daily Weather History Graph

Search for Another Location

Airport or City:

Trip Planner

Search our weather history database for the weather conditions in past years. The results will help you decide how hot, cold, wet, or windy it might be!

Date:

Astronomy

Jul. 07, 2013 Rise Set
Actual Time 5:54 AM HST 7:17 PM HST
Civil Twilight 5:29 AM HST 7:42 PM HST
Nautical Twilight 5:00 AM HST 8:11 PM HST
Astronomical Twilight 4:30 AM HST 8:41 PM HST
Moon 5:32 AM HST (7/7) 6:58 PM HST (7/7)
Length of Visible Light 14h 12m
Length of Day
13h 22m
Waning Crescent, 0% of the Moon is Illuminated
Jul 7
Waning Crescent
Jul 7
New
Jul 15
First Quarter
Jul 22
Full
Jul 29
Last Quarter

Hourly Weather History & Observations

Time (HST) Temp. Heat Index Dew Point Humidity Pressure Visibility Wind Dir Wind Speed Gust Speed Precip Events Conditions
12:57 AM 73.9 °F - 70.0 °F 87% 29.99 in 7.0 mi WNW 3.5 mph - N/A   Mostly Cloudy
1:57 AM 82.9 °F 87.0 °F 70.0 °F 65% 29.97 in - West 3.5 mph - N/A   Partly Cloudy
2:57 AM 78.1 °F - 69.1 °F 74% 29.95 in - Calm Calm - N/A   Partly Cloudy
3:57 AM 74.1 °F - 70.0 °F 87% 29.94 in 7.0 mi SW 3.5 mph - N/A   Mostly Cloudy
4:57 AM 73.6 °F - 69.1 °F 86% 29.94 in 7.0 mi Calm Calm - N/A   Mostly Cloudy
5:57 AM 75.4 °F - 69.1 °F 81% 29.95 in 7.0 mi Calm Calm - N/A   Mostly Cloudy
6:57 AM 74.5 °F - 69.1 °F 83% 29.96 in 7.0 mi Calm Calm - N/A   Mostly Cloudy
7:57 AM 76.8 °F - 69.1 °F 77% 29.97 in 7.0 mi Calm Calm - N/A   Scattered Clouds
8:57 AM 80.2 °F 83.2 °F 69.1 °F 69% 29.97 in 7.0 mi North 5.8 mph - N/A   Scattered Clouds
9:57 AM 81.9 °F 85.2 °F 69.1 °F 65% 29.97 in 7.0 mi ENE 6.9 mph - N/A   Scattered Clouds
10:57 AM 82.0 °F 84.9 °F 68.0 °F 62% 29.97 in 7.0 mi NNE 8.1 mph - N/A   Mostly Cloudy
11:57 AM 82.4 °F 85.8 °F 69.1 °F 64% 29.96 in 7.0 mi NNE 9.2 mph - N/A   Scattered Clouds
12:57 PM 83.8 °F 88.1 °F 70.0 °F 63% 29.95 in 7.0 mi NE 8.1 mph - N/A   Scattered Clouds
1:57 PM 85.5 °F 90.1 °F 70.0 °F 60% 29.94 in 7.0 mi NNE 9.2 mph - N/A   Scattered Clouds
2:57 PM 86.2 °F 90.7 °F 70.0 °F 58% 29.93 in 7.0 mi NE 8.1 mph - N/A   Scattered Clouds
3:57 PM 83.3 °F 86.9 °F 69.1 °F 62% 29.92 in 7.0 mi NE 6.9 mph - N/A   Scattered Clouds
4:57 PM 82.2 °F 85.5 °F 69.1 °F 64% 29.91 in 7.0 mi NNE 8.1 mph - N/A   Mostly Cloudy
5:57 PM 81.3 °F 84.5 °F 69.1 °F 66% 29.92 in 7.0 mi ENE 4.6 mph - N/A   Mostly Cloudy
6:57 PM 79.3 °F - 70.0 °F 73% 29.94 in 7.0 mi ENE 5.8 mph - N/A   Scattered Clouds
7:57 PM 77.9 °F - 69.1 °F 74% 29.95 in 7.0 mi ENE 4.6 mph - N/A   Mostly Cloudy
8:57 PM 75.2 °F - 70.0 °F 84% 29.96 in 7.0 mi East 3.5 mph - N/A   Mostly Cloudy
9:30 PM 82.4 °F 87.2 °F 71.6 °F 70% 29.99 in - Variable 3.5 mph - 0.00 in Rain Light Rain
9:40 PM 75.2 °F - 71.6 °F 89% 29.99 in 6.2 mi Variable 3.5 mph - 0.00 in   Overcast
9:57 PM 75.2 °F - 71.1 °F 87% 29.98 in 7.0 mi East 5.8 mph - 0.00 in   Scattered Clouds
10:57 PM 75.2 °F - 70.0 °F 84% 29.98 in 7.0 mi ESE 3.5 mph - N/A   Partly Cloudy
11:57 PM 75.2 °F - 69.1 °F 81% 29.97 in 7.0 mi East 4.6 mph - N/A   Partly Cloudy